,,Stat6,,Stat2,,Stat8,,Stat9,,Stat10,,Wind1,,Wind1,
time,status,PA1M_AVG,status,PR1M_SUM,status,RH1M_AVG,status,SR1M_AVG,status,TA1M_AVG,status,W1dAve1m,status,W1sAve1m,
2008-10-23, 00:00:00,VALID,918.582,VALID,0,VALID,100,VALID,-0.101885,VALID,18.1068,VALID,132,VALID,0,
2008-10-23, 00:01:00,VALID,918.552,VALID,0,VALID,100,VALID,-0.101885,VALID,18.1228,VALID,106,VALID,0,
2008-10-23, 00:02:00,VALID,918.528,VALID,0,VALID,100,VALID,-0.101885,VALID,18.1071,VALID,92,VALID,0,
2008-10-23, 00:03:00,VALID,918.511,VALID,0,VALID,100,VALID,-0.0509425,VALID,18.0906,VALID,84,VALID,0,
2008-10-23, 00:04:00,VALID,918.496,VALID,0,VALID,100,VALID,-0.0849042,VALID,18.0839,VALID,83,VALID,0,
2008-10-23, 00:05:00,VALID,918.474,VALID,0,VALID,100,VALID,-0.118866,VALID,18.0876,VALID,84,VALID,0,
2008-10-23, 00:06:00,VALID,918.458,VALID,0,VALID,100,VALID,-0.101885,VALID,18.0878,VALID,87,VALID,0,
2008-10-23, 00:07:00,VALID,918.464,VALID,0,VALID,100,VALID,-0.101885,VALID,18.0936,VALID,74,VALID,0,
2008-10-23, 00:08:00,VALID,918.449,VALID,0,VALID,100,VALID,-0.0509425,VALID,18.1098,VALID,79,VALID,0,
2008-10-23, 00:09:00,VALID,918.44,VALID,0,VALID,100,VALID,-0.0679233,VALID,18.1196,VALID,70,VALID,0,
2008-10-23, 00:10:00,VALID,918.416,VALID,0,VALID,100,VALID,-0.0849042,VALID,18.1133,VALID,89,VALID,0,
2008-10-23, 00:11:00,VALID,918.404,VALID,0,VALID,100,VALID,-0.101885,VALID,18.1066,VALID,112,VALID,0,
2008-10-23, 00:12:00,VALID,918.384,VALID,0,VALID,100,VALID,-0.0679233,VALID,18.0973,VALID,112,VALID,0,
2008-10-23, 00:13:00,VALID,918.387,VALID,0,VALID,100,VALID,-0.0509425,VALID,18.0906,VALID,110,VALID,0,
2008-10-23, 00:14:00,VALID,918.374,VALID,0,VALID,100,VALID,-0.0339617,VALID,18.0742,VALID,109,VALID,0,
2008-10-23, 00:15:00,VALID,918.372,VALID,0,VALID,100,VALID,-0.0849042,VALID,18.0709,VALID,104,VALID,0,
2008-10-23, 00:16:00,VALID,918.357,VALID,0,VALID,100,VALID,-0.0509425,VALID,18.0675,VALID,106,VALID,0,
2008-10-23, 00:17:00,VALID,918.344,VALID,0,VALID,100,VALID,-0.0509425,VALID,18.0644,VALID,123,VALID,0,
2008-10-23, 00:18:00,VALID,918.323,VALID,0,VALID,100,VALID,-0.0679233,VALID,18.0709,VALID,121,VALID,0,
2008-10-23, 00:19:00,VALID,918.327,VALID,0,VALID,100,VALID,-0.0679233,VALID,18.0677,VALID,127,VALID,0,
2008-10-23, 00:20:00,VALID,918.297,VALID,0,VALID,100,VALID,-0.0849042,VALID,18.0774,VALID,118,VALID,0,
2008-10-23, 00:21:00,VALID,918.294,VALID,0,VALID,100,VALID,-0.0849042,VALID,18.0644,VALID,117,VALID,0,
2008-10-23, 00:22:00,VALID,918.242,VALID,0,VALID,100,VALID,-0.0679233,VALID,18.061,VALID,121,VALID,0,
2008-10-23, 00:23:00,VALID,918.201,VALID,0,VALID,100,VALID,-0.0509425,VALID,18.0675,VALID,122,VALID,0.136242,
2008-10-23, 00:24:00,VALID,918.176,VALID,0,VALID,100,VALID,-0.0339617,VALID,18.051,VALID,125,VALID,0.00260417,
2008-10-23, 00:25:00,VALID,918.15,VALID,0,VALID,100,VALID,-0.0679233,VALID,18.0552,VALID,125,VALID,0.241655,
2008-10-23, 00:26:00,VALID,918.134,VALID,0,VALID,100,VALID,-0.101885,VALID,18.0487,VALID,130,VALID,0.0826671,
2008-10-23, 00:27:00,VALID,918.13,VALID,0,VALID,100,VALID,-0.101885,VALID,18.0549,VALID,115,VALID,0.0730378,
2008-10-23, 00:28:00,VALID,918.108,VALID,0,VALID,100,VALID,-0.0849042,VALID,18.0552,VALID,121,VALID,0.574219,
2008-10-23, 00:29:00,VALID,918.086,VALID,0,VALID,100,VALID,-0.0849042,VALID,18.0452,VALID,134,VALID,0.394159,
2008-10-23, 00:30:00,VALID,918.071,VALID,0,VALID,100,VALID,-0.101885,VALID,18.032,VALID,142,VALID,0.704033,
2008-10-23, 00:31:00,VALID,918.055,VALID,0,VALID,100,VALID,-0.0679233,VALID,18.032,VALID,154,VALID,0.142323,
2008-10-23, 00:32:00,VALID,918.048,VALID,0,VALID,100,VALID,-0.0679233,VALID,18.0422,VALID,152,VALID,0.145032,
2008-10-23, 00:33:00,VALID,918.041,VALID,0,VALID,100,VALID,-0.101885,VALID,18.0126,VALID,160,VALID,0.367969,
2008-10-23, 00:34:00,VALID,918.036,VALID,0,VALID,100,VALID,-0.101885,VALID,18.0487,VALID,167,VALID,0,
2008-10-23, 00:35:00,VALID,918.025,VALID,0,VALID,100,VALID,-0.0339617,VALID,18.0545,VALID,156,VALID,0,
2008-10-23, 00:36:00,VALID,918.005,VALID,0,VALID,100,VALID,-0.0169808,VALID,18.0577,VALID,147,VALID,0,
2008-10-23, 00:37:00,VALID,917.994,VALID,0,VALID,100,VALID,0,VALID,18.0543,VALID,140,VALID,0,
2008-10-23, 00:38:00,VALID,917.978,VALID,0,VALID,100,VALID,0,VALID,18.035,VALID,125,VALID,0,
2008-10-23, 00:39:00,VALID,917.951,VALID,0,VALID,100,VALID,0,VALID,18.0448,VALID,123,VALID,0,
2008-10-23, 00:40:00,VALID,917.916,VALID,0,VALID,100,VALID,0,VALID,18.0413,VALID,133,VALID,0,
2008-10-23, 00:41:00,VALID,917.92,VALID,0,VALID,100,VALID,-0.0169808,VALID,18.0274,VALID,124,VALID,0,
2008-10-23, 00:42:00,VALID,917.911,VALID,0,VALID,100,VALID,0,VALID,18.0577,VALID,130,VALID,0,
2008-10-23, 00:43:00,VALID,917.903,VALID,0,VALID,100,VALID,0,VALID,18.0607,VALID,121,VALID,0,
2008-10-23, 00:44:00,VALID,917.882,VALID,0,VALID,100,VALID,0,VALID,18.0506,VALID,130,VALID,0,
2008-10-23, 00:45:00,VALID,917.86,VALID,0,VALID,100,VALID,0,VALID,18.067,VALID,128,VALID,0,
2008-10-23, 00:46:00,VALID,917.854,VALID,0,VALID,100,VALID,-0.0169808,VALID,18.077,VALID,122,VALID,0,
2008-10-23, 00:47:00,VALID,917.839,VALID,0,VALID,100,VALID,0,VALID,18.0839,VALID,116,VALID,0,
2008-10-23, 00:48:00,VALID,917.83,VALID,0,VALID,100,VALID,-0.0339617,VALID,18.0735,VALID,115,VALID,0,
2008-10-23, 00:49:00,VALID,917.799,VALID,0,VALID,100,VALID,0,VALID,18.0573,VALID,112,VALID,0,
2008-10-23, 00:50:00,VALID,917.792,VALID,0,VALID,100,VALID,0,VALID,18.0672,VALID,112,VALID,0,
2008-10-23, 00:51:00,VALID,917.765,VALID,0,VALID,100,VALID,-0.0679233,VALID,18.064,VALID,112,VALID,0,
2008-10-23, 00:52:00,VALID,917.739,VALID,0,VALID,100,VALID,-0.0509425,VALID,18.0804,VALID,112,VALID,0,
2008-10-23, 00:53:00,VALID,917.719,VALID,0,VALID,100,VALID,-0.0509425,VALID,18.0865,VALID,112,VALID,0,
2008-10-23, 00:54:00,VALID,917.703,VALID,0,VALID,100,VALID,-0.0169808,VALID,18.1293,VALID,112,VALID,0,
2008-10-23, 00:55:00,VALID,917.695,VALID,0,VALID,100,VALID,-0.0339617,VALID,18.1159,VALID,112,VALID,0,
2008-10-23, 00:56:00,VALID,917.678,VALID,0,VALID,100,VALID,0,VALID,18.1089,VALID,94,VALID,0,
2008-10-23, 00:57:00,VALID,917.66,VALID,0,VALID,100,VALID,-0.0339617,VALID,18.1098,VALID,89,VALID,0,
2008-10-23, 00:58:00,VALID,917.632,VALID,0,VALID,100,VALID,-0.0169808,VALID,18.0839,VALID,87,VALID,0,
2008-10-23, 00:59:00,VALID,917.609,VALID,0,VALID,100,VALID,-0.0509425,VALID,18.048,VALID,78,VALID,0,
2008-10-23, 01:00:00,VALID,917.584,VALID,0,VALID,100,VALID,-0.0169808,VALID,18.0318,VALID,94,VALID,0,
2008-10-23, 01:01:00,VALID,917.559,VALID,0,VALID,100,VALID,-0.0509425,VALID,18.019,VALID,106,VALID,0,
2008-10-23, 01:02:00,VALID,917.543,VALID,0,VALID,100,VALID,-0.0339617,VALID,18.0058,VALID,118,VALID,0,
2008-10-23, 01:03:00,VALID,917.522,VALID,0,VALID,100,VALID,-0.0339617,VALID,18.0061,VALID,135,VALID,0,
2008-10-23, 01:04:00,VALID,917.509,VALID,0,VALID,100,VALID,-0.0679233,VALID,18.0026,VALID,141,VALID,0,
2008-10-23, 01:05:00,VALID,917.495,VALID,0,VALID,100,VALID,-0.0339617,VALID,17.9929,VALID,158,VALID,0,
2008-10-23, 01:06:00,VALID,917.481,VALID,0,VALID,100,VALID,-0.0339617,VALID,17.9794,VALID,160,VALID,0.592901,
2008-10-23, 01:07:00,VALID,917.484,VALID,0,VALID,100,VALID,-0.0169808,VALID,17.9931,VALID,161,VALID,1.34695,
2008-10-23, 01:08:00,VALID,917.501,VALID,0,VALID,100,VALID,-0.0679233,VALID,17.9899,VALID,167,VALID,0.0651042,
2008-10-23, 01:09:00,VALID,917.494,VALID,0,VALID,100,VALID,-0.0849042,VALID,17.9931,VALID,154,VALID,0.37221,
2008-10-23, 01:10:00,VALID,917.483,VALID,0,VALID,100,VALID,-0.0339617,VALID,17.9704,VALID,156,VALID,0.103237,
2008-10-23, 01:11:00,VALID,917.471,VALID,0,VALID,100,VALID,-0.0509425,VALID,17.9639,VALID,158,VALID,0.151042,
2008-10-23, 01:12:00,VALID,917.467,VALID,0,VALID,100,VALID,-0.0679233,VALID,17.9609,VALID,155,VALID,0.0859375,
2008-10-23, 01:13:00,VALID,917.464,VALID,0,VALID,100,VALID,-0.0679233,VALID,17.9542,VALID,156,VALID,0.410252,
2008-10-23, 01:14:00,VALID,917.467,VALID,0,VALID,100,VALID,-0.0679233,VALID,17.9509,VALID,166,VALID,0.77798,
2008-10-23, 01:15:00,VALID,917.463,VALID,0,VALID,100,VALID,-0.0339617,VALID,17.9442,VALID,156,VALID,1.08644,
2008-10-23, 01:16:00,VALID,917.465,VALID,0,VALID,100,VALID,-0.0169808,VALID,17.941,VALID,150,VALID,0.773256,
2008-10-23, 01:17:00,VALID,917.469,VALID,0,VALID,100,VALID,-0.0849042,VALID,17.9445,VALID,161,VALID,0.576349,
2008-10-23, 01:18:00,VALID,917.466,VALID,0,VALID,100,VALID,-0.0169808,VALID,17.9477,VALID,157,VALID,0.832031,
2008-10-23, 01:19:00,VALID,917.46,VALID,0,VALID,100,VALID,-0.0679233,VALID,17.9442,VALID,154,VALID,1.05297,
2008-10-23, 01:20:00,VALID,917.469,VALID,0,VALID,100,VALID,-0.0509425,VALID,17.9607,VALID,155,VALID,0.865473,
2008-10-23, 01:21:00,VALID,917.446,VALID,0,VALID,100,VALID,-0.0679233,VALID,17.9637,VALID,147,VALID,0.835352,
2008-10-23, 01:22:00,VALID,917.439,VALID,0,VALID,100,VALID,-0.0169808,VALID,17.9604,VALID,144,VALID,0.794643,
2008-10-23, 01:23:00,VALID,917.427,VALID,0,VALID,100,VALID,-0.0679233,VALID,17.9472,VALID,131,VALID,0.092722,
2008-10-23, 01:24:00,VALID,917.418,VALID,0,VALID,100,VALID,-0.0509425,VALID,17.9248,VALID,134,VALID,0,
2008-10-23, 01:25:00,VALID,917.416,VALID,0,VALID,100,VALID,-0.0849042,VALID,17.9178,VALID,131,VALID,0.169212,
2008-10-23, 01:26:00,VALID,917.41,VALID,0,VALID,100,VALID,-0.0339617,VALID,17.9313,VALID,136,VALID,0.0025436,
2008-10-23, 01:27:00,VALID,917.379,VALID,0,VALID,100,VALID,-0.0169808,VALID,17.9245,VALID,143,VALID,0.0407366,
2008-10-23, 01:28:00,VALID,917.387,VALID,0,VALID,100,VALID,-0.0339617,VALID,17.941,VALID,148,VALID,0.00121528,
2008-10-23, 01:29:00,VALID,917.395,VALID,0,VALID,100,VALID,-0.0169808,VALID,17.9475,VALID,139,VALID,0,
2008-10-23, 01:30:00,VALID,917.403,VALID,0,VALID,100,VALID,-0.0339617,VALID,17.9306,VALID,142,VALID,0,
2008-10-23, 01:31:00,VALID,917.402,VALID,0,VALID,100,VALID,-0.0339617,VALID,17.9185,VALID,148,VALID,0.66875,
2008-10-23, 01:32:00,VALID,917.412,VALID,0,VALID,100,VALID,-0.0509425,VALID,17.9181,VALID,158,VALID,0.462536,
2008-10-23, 01:33:00,VALID,917.405,VALID,0,VALID,100,VALID,-0.0169808,VALID,17.9118,VALID,155,VALID,1.13411,
2008-10-23, 01:34:00,VALID,917.416,VALID,0,VALID,100,VALID,0,VALID,17.9118,VALID,151,VALID,0.94077,
2008-10-23, 01:35:00,VALID,917.414,VALID,0,VALID,100,VALID,0,VALID,17.9178,VALID,152,VALID,1.38263,
2008-10-23, 01:36:00,VALID,917.403,VALID,0,VALID,100,VALID,0,VALID,17.8954,VALID,153,VALID,1.00137,
2008-10-23, 01:37:00,VALID,917.373,VALID,0,VALID,100,VALID,0.0339617,VALID,17.8822,VALID,144,VALID,1.34728,
2008-10-23, 01:38:00,VALID,917.38,VALID,0,VALID,100,VALID,0,VALID,17.8625,VALID,140,VALID,0.995313,
2008-10-23, 01:39:00,VALID,917.342,VALID,0,VALID,100,VALID,-0.0169808,VALID,17.8694,VALID,138,VALID,0.839543,
2008-10-23, 01:40:00,VALID,917.32,VALID,0,VALID,100,VALID,-0.0169808,VALID,17.8534,VALID,143,VALID,0.169667,
2008-10-23, 01:41:00,VALID,917.286,VALID,0,VALID,100,VALID,0,VALID,17.8435,VALID,135,VALID,0.602307,
2008-10-23, 01:42:00,VALID,917.266,VALID,0,VALID,100,VALID,0,VALID,17.8266,VALID,129,VALID,0.143169,
2008-10-23, 01:43:00,VALID,917.25,VALID,0,VALID,100,VALID,-0.0339617,VALID,17.8138,VALID,129,VALID,1.24627,
2008-10-23, 01:44:00,VALID,917.226,VALID,0,VALID,100,VALID,0,VALID,17.8171,VALID,138,VALID,1.39844,
2008-10-23, 01:45:00,VALID,917.211,VALID,0,VALID,100,VALID,0.0169808,VALID,17.8365,VALID,139,VALID,1.30859,
2008-10-23, 01:46:00,VALID,917.208,VALID,0,VALID,100,VALID,-0.0339617,VALID,17.8463,VALID,135,VALID,1.76308,
2008-10-23, 01:47:00,VALID,917.188,VALID,0,VALID,100,VALID,0,VALID,17.8562,VALID,129,VALID,1.41566,
2008-10-23, 01:48:00,VALID,917.171,VALID,0,VALID,100,VALID,0.0169808,VALID,17.8458,VALID,120,VALID,1.101,
2008-10-23, 01:49:00,VALID,917.164,VALID,0,VALID,100,VALID,-0.0339617,VALID,17.8537,VALID,126,VALID,1.73726,
2008-10-23, 01:50:00,VALID,917.157,VALID,0,VALID,100,VALID,-0.0679233,VALID,17.8636,VALID,136,VALID,0.952943,
2008-10-23, 01:51:00,VALID,917.162,VALID,0,VALID,100,VALID,-0.0849042,VALID,17.8604,VALID,130,VALID,0.972098,
2008-10-23, 01:52:00,VALID,917.161,VALID,0,VALID,100,VALID,-0.0849042,VALID,17.8608,VALID,133,VALID,1.51358,
2008-10-23, 01:53:00,VALID,917.149,VALID,0,VALID,100,VALID,-0.0849042,VALID,17.8543,VALID,132,VALID,0.44077,
2008-10-23, 01:54:00,VALID,917.115,VALID,0,VALID,100,VALID,-0.0849042,VALID,17.8543,VALID,146,VALID,1.49276,
2008-10-23, 01:55:00,VALID,917.095,VALID,0,VALID,100,VALID,-0.101885,VALID,17.8546,VALID,154,VALID,1.66111,
2008-10-23, 01:56:00,VALID,917.086,VALID,0,VALID,100,VALID,-0.118866,VALID,17.861,VALID,155,VALID,1.51456,
2008-10-23, 01:57:00,VALID,917.072,VALID,0,VALID,100,VALID,-0.101885,VALID,17.8511,VALID,154,VALID,1.17042,
2008-10-23, 01:58:00,VALID,917.068,VALID,0,VALID,100,VALID,-0.101885,VALID,17.8478,VALID,146,VALID,1.44792,
2008-10-23, 01:59:00,VALID,917.061,VALID,0,VALID,100,VALID,-0.101885,VALID,17.8379,VALID,142,VALID,1.46523,
2008-10-23, 02:00:00,VALID,917.05,VALID,0,VALID,100,VALID,-0.0679233,VALID,17.8346,VALID,144,VALID,1.37251,
2008-10-23, 02:01:00,VALID,917.044,VALID,0,VALID,100,VALID,-0.101885,VALID,17.8506,VALID,141,VALID,0.636446,
2008-10-23, 02:02:00,VALID,917.037,VALID,0,VALID,100,VALID,-0.101885,VALID,17.8636,VALID,137,VALID,0.0928416,
2008-10-23, 02:03:00,VALID,917.055,VALID,0,VALID,100,VALID,-0.101885,VALID,17.8666,VALID,163,VALID,0.739702,
2008-10-23, 02:04:00,VALID,917.072,VALID,0,VALID,100,VALID,-0.0509425,VALID,17.8634,VALID,156,VALID,0.497638,
2008-10-23, 02:05:00,VALID,917.087,VALID,0,VALID,100,VALID,0,VALID,17.8852,VALID,148,VALID,0.402616,
2008-10-23, 02:06:00,VALID,917.101,VALID,0,VALID,100,VALID,0,VALID,17.8787,VALID,153,VALID,0.912946,
2008-10-23, 02:07:00,VALID,917.108,VALID,0,VALID,100,VALID,0,VALID,17.8789,VALID,130,VALID,0.18192,
2008-10-23, 02:08:00,VALID,917.11,VALID,0,VALID,100,VALID,0,VALID,17.8525,VALID,129,VALID,0,
2008-10-23, 02:09:00,VALID,917.124,VALID,0,VALID,100,VALID,-0.0169808,VALID,17.8567,VALID,143,VALID,0,
2008-10-23, 02:10:00,VALID,917.124,VALID,0,VALID,100,VALID,0,VALID,17.8826,VALID,143,VALID,0,
2008-10-23, 02:11:00,VALID,917.142,VALID,0,VALID,100,VALID,0.0339617,VALID,17.869,VALID,140,VALID,0,
2008-10-23, 02:12:00,VALID,917.127,VALID,0,VALID,100,VALID,0,VALID,17.8623,VALID,132,VALID,0,
2008-10-23, 02:13:00,VALID,917.133,VALID,0,VALID,100,VALID,0.0339617,VALID,17.8949,VALID,118,VALID,0,
2008-10-23, 02:14:00,VALID,917.136,VALID,0,VALID,99.97,VALID,0.0169808,VALID,17.8981,VALID,98,VALID,0,
2008-10-23, 02:15:00,VALID,917.139,VALID,0,VALID,99.8375,VALID,0.0169808,VALID,17.9144,VALID,95,VALID,0,
2008-10-23, 02:16:00,VALID,917.149,VALID,0,VALID,99.9163,VALID,0,VALID,17.9176,VALID,109,VALID,0.151677,
2008-10-23, 02:17:00,VALID,917.145,VALID,0,VALID,100,VALID,0,VALID,17.9083,VALID,108,VALID,0.181868,
2008-10-23, 02:18:00,VALID,917.145,VALID,0,VALID,99.9257,VALID,0.0169808,VALID,17.8824,VALID,98,VALID,0.71361,
2008-10-23, 02:19:00,VALID,917.146,VALID,0,VALID,99.8591,VALID,0,VALID,17.8595,VALID,88,VALID,0.414608,
2008-10-23, 02:20:00,VALID,917.134,VALID,0,VALID,99.8375,VALID,-0.0169808,VALID,17.8493,VALID,90,VALID,0.00225694,
2008-10-23, 02:21:00,VALID,917.122,VALID,0,VALID,99.8629,VALID,0.0169808,VALID,17.846,VALID,93,VALID,0,
2008-10-23, 02:22:00,VALID,917.122,VALID,0,VALID,99.8273,VALID,-0.0169808,VALID,17.8266,VALID,96,VALID,0,
2008-10-23, 02:23:00,VALID,917.116,VALID,0,VALID,99.9738,VALID,0.0169808,VALID,17.8266,VALID,96,VALID,0,
2008-10-23, 02:24:00,VALID,917.105,VALID,0,VALID,99.8983,VALID,0.0169808,VALID,17.8233,VALID,109,VALID,0,
2008-10-23, 02:25:00,VALID,917.088,VALID,0,VALID,99.8782,VALID,0.0339617,VALID,17.8266,VALID,112,VALID,0,
2008-10-23, 02:26:00,VALID,917.069,VALID,0,VALID,99.8934,VALID,0.0169808,VALID,17.84,VALID,123,VALID,0,
2008-10-23, 02:27:00,VALID,917.061,VALID,0,VALID,99.9006,VALID,0.0169808,VALID,17.8495,VALID,125,VALID,0,
2008-10-23, 02:28:00,VALID,917.047,VALID,0,VALID,99.8868,VALID,0.0169808,VALID,17.8657,VALID,125,VALID,0.103566,
2008-10-23, 02:29:00,VALID,917.044,VALID,0,VALID,99.6836,VALID,0.0169808,VALID,17.8528,VALID,125,VALID,0.541788,
2008-10-23, 02:30:00,VALID,917.04,VALID,0,VALID,99.8792,VALID,0.0679233,VALID,17.8722,VALID,97,VALID,0.0494792,
2008-10-23, 02:31:00,VALID,917.051,VALID,0,VALID,99.9837,VALID,0.0339617,VALID,17.8787,VALID,77,VALID,0,
2008-10-23, 02:32:00,VALID,917.061,VALID,0,VALID,99.7078,VALID,0.0169808,VALID,17.8201,VALID,90,VALID,0,
2008-10-23, 02:33:00,VALID,917.078,VALID,0,VALID,99.9524,VALID,0.0169808,VALID,17.8432,VALID,100,VALID,0,
2008-10-23, 02:34:00,VALID,917.095,VALID,0,VALID,100,VALID,-0.0169808,VALID,17.8331,VALID,104,VALID,0.480196,
2008-10-23, 02:35:00,VALID,917.113,VALID,0,VALID,100,VALID,-0.0169808,VALID,17.8268,VALID,112,VALID,0.915396,
2008-10-23, 02:36:00,VALID,917.126,VALID,0,VALID,100,VALID,0,VALID,17.7874,VALID,116,VALID,0.916606,
2008-10-23, 02:37:00,VALID,917.135,VALID,0,VALID,100,VALID,-0.0169808,VALID,17.7909,VALID,130,VALID,0.328906,
2008-10-23, 02:38:00,VALID,917.136,VALID,0,VALID,100,VALID,-0.0169808,VALID,17.7745,VALID,140,VALID,1.39684,
2008-10-23, 02:39:00,VALID,917.122,VALID,0,VALID,100,VALID,-0.0169808,VALID,17.7944,VALID,142,VALID,0.854421,
2008-10-23, 02:40:00,VALID,917.129,VALID,0,VALID,100,VALID,-0.0169808,VALID,17.8134,VALID,134,VALID,1.00945,
2008-10-23, 02:41:00,VALID,917.126,VALID,0,VALID,100,VALID,-0.0169808,VALID,17.8203,VALID,103,VALID,0.725419,
2008-10-23, 02:42:00,VALID,917.123,VALID,0,VALID,100,VALID,-0.0169808,VALID,17.8071,VALID,97,VALID,0.1875,
2008-10-23, 02:43:00,VALID,917.115,VALID,0,VALID,100,VALID,-0.0169808,VALID,17.784,VALID,97,VALID,0.0303199,
2008-10-23, 02:44:00,VALID,917.108,VALID,0,VALID,100,VALID,-0.0169808,VALID,17.7874,VALID,49,VALID,0.0142361,
2008-10-23, 02:45:00,VALID,917.119,VALID,0,VALID,100,VALID,-0.0339617,VALID,17.7782,VALID,27,VALID,0,
2008-10-23, 02:46:00,VALID,917.104,VALID,0,VALID,100,VALID,-0.0339617,VALID,17.736,VALID,56,VALID,0,
2008-10-23, 02:47:00,VALID,917.099,VALID,0,VALID,100,VALID,-0.0339617,VALID,17.7001,VALID,83,VALID,0,
2008-10-23, 02:48:00,VALID,917.079,VALID,0,VALID,100,VALID,-0.0169808,VALID,17.6837,VALID,95,VALID,0,
2008-10-23, 02:49:00,VALID,917.081,VALID,0,VALID,100,VALID,0,VALID,17.6902,VALID,97,VALID,0,
2008-10-23, 02:50:00,VALID,917.075,VALID,0,VALID,100,VALID,-0.0169808,VALID,17.6902,VALID,91,VALID,0,
2008-10-23, 02:51:00,VALID,917.067,VALID,0,VALID,100,VALID,-0.0169808,VALID,17.6645,VALID,81,VALID,0,
2008-10-23, 02:52:00,VALID,917.054,VALID,0,VALID,100,VALID,-0.0339617,VALID,17.642,VALID,81,VALID,0,
2008-10-23, 02:53:00,VALID,917.058,VALID,0,VALID,100,VALID,-0.0679233,VALID,17.6586,VALID,79,VALID,0,
2008-10-23, 02:54:00,VALID,917.051,VALID,0,VALID,100,VALID,-0.0339617,VALID,17.6351,VALID,76,VALID,0,
2008-10-23, 02:55:00,VALID,917.043,VALID,0,VALID,100,VALID,-0.0339617,VALID,17.6385,VALID,76,VALID,0,
2008-10-23, 02:56:00,VALID,917.021,VALID,0,VALID,100,VALID,-0.0169808,VALID,17.6353,VALID,76,VALID,0,
2008-10-23, 02:57:00,VALID,917.017,VALID,0,VALID,100,VALID,0,VALID,17.6221,VALID,80,VALID,0,
2008-10-23, 02:58:00,VALID,917.005,VALID,0,VALID,100,VALID,0,VALID,17.5929,VALID,100,VALID,0,
2008-10-23, 02:59:00,VALID,917.008,VALID,0,VALID,100,VALID,-0.0169808,VALID,17.6091,VALID,129,VALID,0.00111607,
2008-10-23, 03:00:00,VALID,917.016,VALID,0,VALID,100,VALID,-0.0679233,VALID,17.6156,VALID,132,VALID,0,
2008-10-23, 03:01:00,VALID,917.014,VALID,0,VALID,100,VALID,-0.0509425,VALID,17.632,VALID,133,VALID,0,
2008-10-23, 03:02:00,VALID,917.019,VALID,0,VALID,100,VALID,0,VALID,17.6478,VALID,140,VALID,0.431686,
2008-10-23, 03:03:00,VALID,917.031,VALID,0,VALID,100,VALID,-0.0339617,VALID,17.6612,VALID,153,VALID,1.21076,
2008-10-23, 03:04:00,VALID,917.04,VALID,0,VALID,100,VALID,-0.0339617,VALID,17.6902,VALID,152,VALID,1.30941,
2008-10-23, 03:05:00,VALID,917.073,VALID,0,VALID,100,VALID,-0.0169808,VALID,17.6971,VALID,151,VALID,1.3869,
2008-10-23, 03:06:00,VALID,917.084,VALID,0,VALID,100,VALID,-0.0509425,VALID,17.6902,VALID,154,VALID,1.44967,
2008-10-23, 03:07:00,VALID,917.105,VALID,0,VALID,100,VALID,0,VALID,17.7038,VALID,154,VALID,1.33079,
2008-10-23, 03:08:00,VALID,917.119,VALID,0,VALID,100,VALID,0,VALID,17.7034,VALID,156,VALID,0.807478,
2008-10-23, 03:09:00,VALID,917.132,VALID,0,VALID,100,VALID,0,VALID,17.6969,VALID,156,VALID,0.399528,
2008-10-23, 03:10:00,VALID,917.142,VALID,0,VALID,100,VALID,-0.0169808,VALID,17.6578,VALID,144,VALID,1.4497,
2008-10-23, 03:11:00,VALID,917.131,VALID,0,VALID,100,VALID,-0.0509425,VALID,17.6612,VALID,142,VALID,0.693824,
2008-10-23, 03:12:00,VALID,917.132,VALID,0,VALID,100,VALID,-0.0169808,VALID,17.6742,VALID,129,VALID,0.647372,
2008-10-23, 03:13:00,VALID,917.136,VALID,0,VALID,100,VALID,-0.0509425,VALID,17.6936,VALID,131,VALID,0.830305,
2008-10-23, 03:14:00,VALID,917.133,VALID,0,VALID,100,VALID,-0.0339617,VALID,17.6904,VALID,127,VALID,0.00319602,
2008-10-23, 03:15:00,VALID,917.138,VALID,0,VALID,100,VALID,-0.0849042,VALID,17.6804,VALID,151,VALID,0.179116,
2008-10-23, 03:16:00,VALID,917.149,VALID,0,VALID,100,VALID,-0.0169808,VALID,17.69,VALID,153,VALID,0.782393,
2008-10-23, 03:17:00,VALID,917.153,VALID,0,VALID,100,VALID,-0.0339617,VALID,17.7131,VALID,164,VALID,0.00628811,
2008-10-23, 03:18:00,VALID,917.152,VALID,0,VALID,100,VALID,-0.0339617,VALID,17.7263,VALID,153,VALID,0,
2008-10-23, 03:19:01,VALID,917.162,VALID,0,VALID,100,VALID,-0.0509425,VALID,17.7228,VALID,151,VALID,0,
2008-10-23, 03:20:00,VALID,917.166,VALID,0,VALID,100,VALID,-0.0339617,VALID,17.7191,VALID,151,VALID,0,
2008-10-23, 03:21:00,VALID,917.17,VALID,0,VALID,100,VALID,-0.0339617,VALID,17.7393,VALID,151,VALID,0,
2008-10-23, 03:22:00,VALID,917.167,VALID,0,VALID,100,VALID,-0.0509425,VALID,17.7133,VALID,138,VALID,0,
2008-10-23, 03:23:00,VALID,917.155,VALID,0,VALID,100,VALID,-0.0509425,VALID,17.7099,VALID,119,VALID,0,
2008-10-23, 03:24:00,VALID,917.162,VALID,0,VALID,100,VALID,-0.0679233,VALID,17.7036,VALID,116,VALID,0,
2008-10-23, 03:25:01,VALID,917.142,VALID,0,VALID,100,VALID,-0.0679233,VALID,17.7006,VALID,106,VALID,0,
2008-10-23, 03:26:00,VALID,917.143,VALID,0,VALID,100,VALID,-0.0679233,VALID,17.6841,VALID,113,VALID,0,
2008-10-23, 03:27:00,VALID,917.134,VALID,0,VALID,100,VALID,-0.0339617,VALID,17.6675,VALID,99,VALID,0,
2008-10-23, 03:28:00,VALID,917.143,VALID,0,VALID,100,VALID,0,VALID,17.6614,VALID,114,VALID,0.115513,
2008-10-23, 03:29:00,VALID,917.147,VALID,0,VALID,100,VALID,-0.0169808,VALID,17.6709,VALID,90,VALID,0,
2008-10-23, 03:30:00,VALID,917.153,VALID,0,VALID,100,VALID,-0.0169808,VALID,17.6649,VALID,116,VALID,0,
2008-10-23, 03:31:00,VALID,917.153,VALID,0,VALID,100,VALID,-0.0169808,VALID,17.661,VALID,123,VALID,0,
2008-10-23, 03:32:00,VALID,917.154,VALID,0,VALID,100,VALID,-0.0169808,VALID,17.6774,VALID,107,VALID,0,
2008-10-23, 03:33:00,VALID,917.152,VALID,0,VALID,100,VALID,-0.0509425,VALID,17.664,VALID,91,VALID,0,
2008-10-23, 03:34:00,VALID,917.156,VALID,0,VALID,100,VALID,-0.0169808,VALID,17.6415,VALID,109,VALID,0,
2008-10-23, 03:35:01,VALID,917.152,VALID,0,VALID,100,VALID,-0.0509425,VALID,17.6612,VALID,112,VALID,0,
2008-10-23, 03:36:00,VALID,917.15,VALID,0,VALID,100,VALID,-0.0169808,VALID,17.6742,VALID,100,VALID,0,
2008-10-23, 03:37:01,VALID,917.15,VALID,0,VALID,100,VALID,-0.0169808,VALID,17.6841,VALID,69,VALID,0,
2008-10-23, 03:38:00,VALID,917.154,VALID,0,VALID,100,VALID,-0.0339617,VALID,17.6874,VALID,69,VALID,0,
2008-10-23, 03:39:00,VALID,917.153,VALID,0,VALID,100,VALID,0,VALID,17.6904,VALID,69,VALID,0,
2008-10-23, 03:40:00,VALID,917.155,VALID,0,VALID,100,VALID,-0.0169808,VALID,17.6967,VALID,69,VALID,0,
2008-10-23, 03:41:01,VALID,917.147,VALID,0,VALID,100,VALID,0,VALID,17.6934,VALID,69,VALID,0,
2008-10-23, 03:42:00,VALID,917.133,VALID,0,VALID,100,VALID,-0.0509425,VALID,17.6967,VALID,69,VALID,0,
2008-10-23, 03:43:00,VALID,917.11,VALID,0,VALID,100,VALID,-0.0169808,VALID,17.7163,VALID,69,VALID,0,
2008-10-23, 03:44:00,VALID,917.101,VALID,0,VALID,100,VALID,0,VALID,17.723,VALID,69,VALID,0,
2008-10-23, 03:45:00,VALID,917.107,VALID,0,VALID,100,VALID,-0.0339617,VALID,17.7263,VALID,69,VALID,0,